Погода в Кургане

Погода в Кургане : погода сейчас, прогноз погоды и архив. Всё, что Вы хотите узнать о погоде в Кургане!

Хотите узнать прогноз погоды в Кургане? Тогда Вам сюда: Погода в Кургане

Поиск расширенной информации на нашем сайте:

Другие новости

Новости СМИ2

Главная страница сайта

Новости сайта

02.10.2013

Напоминаем, что на нашем новом сайте вы можете получить высокодетализированные прогнозы погоды по пунктам России, СНГ и мира (включающие важные для авиации метеовеличины, такие как направление и скорость ветра, видимость, явления погоды, количество и форма облачности, нижняя и верхняя граница облачности), а также ознакомиться с разнообразными материалами по авиационной метеорологии и подборкой полезных ссылок на эту тему.

Сайт Метеоцентр.Азия посвящён разработке технологий оптимизации авиаметеорологического обслуживания, включая проектирование и перспективное создание нескольких автоматизированных авиаметеорологических систем:
- система выпуска высокодетальных прогностических карт явлений погоды для нижнего воздушного пространства по России и ближнему зарубежью;
- система верификации прогнозов TAF (выпускаемых синоптиками официальных АМСГ РФ и ближнего зарубежья) и AUTOTAF (выпускаемых сайтом Метеоцентр.Азия) - выявление ошибок, онлайн-сопоставление с фактической погодой METAR, автоматическое внесение коррективов в прогнозы при резком отклонении фактической погоды от прогноза, подсчёт оправдываемости прогнозов по элементам и в целом;
- система обработки, анализа и отображения авиаметеорологической информации для применения провайдерами метеорологической информации.

Рекомендуем: ТрансВЕНТА - автоперевозки по России.

Погода в Кургане - сегодня

Время (UTC), дата Ветер
(°,м/с) 
Видим.   Явления Облачность Т
(°С)
Тd
(°С)
f(%) Тe
(°С)
Pmin
(гПа)
dP
(гПа)
Po
(мм)
O2
(г/м3)
Тmin Tmax R s Состояние
почвы
06 28.06.15 120 (ЮВ) 20000 м    6/0 верхняя 
[Ci fib]
+27.3 +9.7 33 +28  1016  -0.3  756  275           
09 28.06.15 140 (ЮВ) 20000 м    6/3 1000 м верхняя 
[Cu hum|Ci fib]
+28.5 +8.3 28 +29  1015.4  -0.6  755  274           
12 28.06.15 120 (ЮВ) 20000 м    8/0 верхняя 
[Ci fib]
+29.4 +8 26 +29  1014.6  -0.7  755  273           
15 28.06.15 120 (ЮВ) 20000 м    8/0 верхняя 
[Ci fib]
+27.5 +8.9 31 +28  1014.2  -0.4  754  275    +29.5       
18 28.06.15 тихо ()   10 км    4/0 верхняя 
[Ci fib]
+19.5 +11.3 59 +22  1014.4  754  282           
21 28.06.15 140 (ЮВ) 10 км    3/0 верхняя 
[Ci fib]
+18.5 +11.2 62 +23  1014.3  0.1  754  283           
00 29.06.15 120 (ЮВ) 10 км    ясно 
+15.7 +11.4 76 +20  1014.7  0.3  754  285           
03 29.06.15 170 (Ю) 20000 м    ясно 
+23.9 +12.3 48 +28  1014  -0.5  754  277  +15.6        сухая 
06 29.06.15 150 (ЮВ) 20000 м    1/1 1000 м 
[Cu hum]
+29.6 +9 28 +30  1013.1  -0.5  754  272           
09 29.06.15 150 (ЮВ) 20000 м    6/3 1000 м верхняя 
[Cu hum|Ci fib]
+31.6 +8.6 24 +32  1012.2  -0.8  753  270           
12 29.06.15 160 (Ю) 10 км    6/3 1000 м верхняя 
[Cu hum|Ci fib]
+32.7 +9 23 +33  1010.8  -1.4  752  269           
15 29.06.15 150 (ЮВ) 10 км    3/0 средняя 
[Ac cuf]
+30.3 +10.6 30 +32  1010  -0.9  751  271    +32.9       
18 29.06.15 160 (Ю) 10 км    3/0 верхняя 
[Ci fib]
+24.2 +12.2 47 +28  1010.1  751  276           
21 29.06.15 160 (Ю) 10 км    ясно 
+21.1 +12 56 +25  1009.7  -0.5  751  279           
00 30.06.15 тихо ()   20000 м    1/0 верхняя 
[Ci fib]
+19.7 +12.8 64 +25  1009.6  0.1  751  280           
03 30.06.15 200 (Ю) 20000 м    ясно 
+26 +14.8 50 +34  1009.3  -0.2  751  273  +18.6        сухая 
06 30.06.15 220 (ЮЗ) 20000 м    4/0 средняя, верхняя 
[Ac trans|Ci fib]
+32.2 +13.4 32 +38  1009  0.1  751  268           
09 30.06.15 180 (Ю) 20000 м    3/3 1000 м 
[Cu hum]
+35.6 +14.3 28 +43  1008.1  -0.8  750  265           
12 30.06.15 200 (Ю) 20000 м  гроза без осадков  8/4 1000 м кучево-дожд., средняя, верхняя 
[Cb cap|Ac trans|Ci fib]
+35 +13.4 27 +41  1007  -1.1  749  265           
15 30.06.15 070 (В) 2{15}  20000 м  в посл. час гроза{ливн. осадки}  10/4 1000 м кучево-дожд., средняя, верхняя 
[Cb cap|Ac trans|Ci fib]
+22.2 +17.4 74 +35  1008.9  1.5  750  276    +36.6     
18 30.06.15 150 (ЮВ) 10 км  {гроза, ливн. осадки}  10/5 1000 м кучево-дожд., средняя, верхняя 
[Cb cap|Ac trans|Ci fib]
+21.9 +16.3 70 +33  1008.3  -0.6  750  276           
21 30.06.15 160 (Ю) 10 км    8/3 1000 м кучево-дожд., средняя, верхняя 
[Cb cap|Ac trans|Ci fib]
+21.1 +16.3 74 +32  1008.8  0.5  750  277           
00 01.07.15 340 (С) 20000 м    10/5 1000 м кучево-дожд., средняя, верхняя 
[Cb cap|Ac trans|Ci fib]
+20.1 +17 82 +32  1008.8  750  278           
03 01.07.15 110 (В) 20000 м  гроза, ливневой дождь  10/6 1000 м кучево-дожд., средняя, верхняя 
[Cb calv|Ac trans|Ci fib]
+19.9 +17.8 88 +35  1008  -0.8  750  277  +19.9    0.8    влажная 
06 01.07.15 050 (СВ) 20000 м  {гроза, ливн. осадки}  10/5 1000 м кучево-дожд., средняя, верхняя 
[Cb calv|Ac trans|Ci fib]
+24.1 +18.6 71 +40  1007.7  -0.2  749  273           
Время (UTC), дата Ветер
(°,м/с) 
Видим.   Явления Облачность Т
(°С)
Тd
(°С)
f(%) Тe
(°С)
Pmin
(гПа)
dP
(гПа)
Po
(мм)
O2
(г/м3)
Тmin Tmax R s Состояние
почвы

Для получения пояснительной информации подведите курсор к названию столбца.

ПОГОДА в Кургане - архив

Всё, что Вы хотите узнать о погоде в Кургане - удобно и подробно!

Выберите нужную дату (начиная с 1 января 2013* года) и нажмите кнопку "Найти".
Будут отображены архивные сводки погоды по пункту Курган, начиная с указанной даты.


Отображать данные в формате CSV (для использования в таблицах Excel)


Внимание! Наш архив погоды предназначен исключительно для личного некоммерческого использования в познавательных целях. Если Вам необходимы официальные справки о состоянии погоды (для производственных, юридических, коммерческих и т.п. целей), обращайтесь в органы Росгидромета.

*Примечание: данная дата относится к архиву по метеостанциям СССР (Россия, СНГ, Балтия).
Архив по метеостанциям Зарубежной Европы и Азии (кроме Китая) хранится 10 дней, по другим регионам земного шара (Китай, Африка, Америка, Австралия, Океания) - 1 день.

Курган - район местоположения метеостанции


Название, широта, долгота, высота метеостанции:
Курган 55.5°ш. 65.4°д. 74 м над ур. моря [Российская Федерация]

Дополнительная информация

В oтличие oт бoльшинства пoгoдных сайтoв мы публикуем пoдрoбную метеoинфoрмацию в детальнoм прoфессиoнальнoм фoрмате.

Характеристики температуры и влажнoсти вoздуха измеряются на высoте 2 м в тени вдали oт зданий и деревьев.
Скoрoсть ветра измеряется на высoте 10 м (на урoвне рoста челoвека скoрoсть ветра ниже в 1.5-2 раза). Если метеoстанция нахoдится в гoрoде или в лесу, тo скoрoсть ветра занижена на 2-4 м/с пo сравнению с oткрытым местoм. Скoрoсть ветра над акватoриями крупных рек и oзёр, а также на вершинах хoлмoв на 2-5 м/с выше, чем в oбычных услoвиях.
Атмoсфернoе давление в разных тoчках местнoсти мoжет значительнo oтличаться oт давления на метеoстанции, в зависимoсти oт услoвий рельефа (при пoдъёме на 10 м давление пoнижается примернo на 1 мм рт.ст.).